Overview Statistics Trail Chart Weather Telemetry Raw packets
 

This is the latest recevied weather packets stored in our database for station/object KE8WMS. If no packets are shown the sender has not sent any weather packets the latest 10 day(s).

<< 39 40 41 42 43 44 45 >>
Time Temp. Humidity Pressure Rain* Wind** Luminosity Snow
1777582526 12.78° C 54% 1011.1 hPa 0 mm - 445 W/m² -
1777582221 11.67° C 53% 1011.3 hPa 0 mm - 454 W/m² -
1777581919 12.22° C 54% 1011.2 hPa 0 mm - 465 W/m² -
1777581614 12.78° C 53% 1011.3 hPa 0 mm - 495 W/m² -
1777581308 12.22° C 52% 1011.2 hPa 0 mm - 497 W/m² -
1777581008 11.67° C 56% 1011.3 hPa 0 mm - 533 W/m² -
1777580703 11.67° C 53% 1011.3 hPa 0 mm - 531 W/m² -
1777580399 11.67° C 55% 1011.3 hPa 0 mm - 552 W/m² -
1777580095 11.67° C 54% 1011.4 hPa 0 mm - 547 W/m² -
1777579792 11.67° C 56% 1011.3 hPa 0 mm - 558 W/m² -
1777579489 11.67° C 53% 1011.3 hPa 0 mm - 604 W/m² -
1777579185 12.78° C 53% 1011 hPa 0 mm - 584 W/m² -
1777578880 12.78° C 56% 1011.3 hPa 0 mm - 598 W/m² -
1777578576 12.78° C 53% 1011.2 hPa 0 mm - 610 W/m² -
1777578271 11.67° C 58% 1011.4 hPa 0 mm - 623 W/m² -
1777577967 11.67° C 55% 1011.6 hPa 0 mm - 637 W/m² -
1777577662 12.22° C 55% 1011.5 hPa 0 mm - 634 W/m² -
1777577360 11.67° C 53% 1011.5 hPa 0 mm - 648 W/m² -
1777577055 11.67° C 57% 1011.4 hPa 0 mm - 658 W/m² -
1777576753 11.67° C 55% 1011.9 hPa 0 mm - 663 W/m² -
1777576451 11.67° C 54% 1011.4 hPa 0 mm - 723 W/m² -
1777576149 11.11° C 56% 1011.4 hPa 0 mm - 161 W/m² -
1777575843 12.78° C 55% 1011.4 hPa 0 mm - 772 W/m² -
1777575541 12.22° C 57% 1011.6 hPa 0 mm - 765 W/m² -
1777575236 12.78° C 55% 1011.5 hPa 0 mm - 792 W/m² -

* Rain latest hour (hover to see other rain measurements)
** Current wind speed in m/s (hover to see current wind gust speed)